Sidney-Richland, MT

6:05 PM MDT on August 18, 2017 (GMT -0600)
Sidney-Richland Municipal

Weather History for KSDY - March, 2012

Change the Weather History Date:

Wednesday, March 7, 2012

  Actual Average Record
Temperature  
Mean Temperature 27 °F -  
Max Temperature 35 °F 39 °F 68 °F (1987)
Min Temperature 19 °F 14 °F -18 °F (1951)
Degree Days  
Heating Degree Days 38    
Moisture  
Dew Point 14 °F    
Average Humidity 60    
Maximum Humidity 74    
Minimum Humidity 41    
Precipitation  
Precipitation 0.00 in - - ()
Sea Level Pressure  
Sea Level Pressure 29.98 in    
Wind  
Wind Speed 12 mph (WNW)    
Max Wind Speed 22 mph    
Max Gust Speed 28 mph    
Visibility 10 miles    
Events      
Averages and records for this station are not official NWS values.
T = Trace of Precipitation, MM = Missing Value Source: NWS Daily Summary

Daily Weather History Graph

Daily Weather History Graph

Search for Another Location

Airport or City:

Trip Planner

Search our weather history database for the weather conditions in past years. The results will help you decide how hot, cold, wet, or windy it might be!

Date:

Astronomy

Mar. 07, 2012 Rise Set
Actual Time 6:24 AM MST 5:51 PM MST
Civil Twilight 5:53 AM MST 6:22 PM MST
Nautical Twilight 5:18 AM MST 6:57 PM MST
Astronomical Twilight 4:42 AM MST 7:34 PM MST
Moon 5:32 PM MST (3/7) 5:36 AM MST (3/7)
Length of Visible Light 12h 28m
Length of Day
11h 26m
Waxing Gibbous, 99% of the Moon is Illuminated
Mar 7
Waxing Gibbous
Mar 8
Full
Mar 14
Last Quarter
Mar 22
New
Mar 30
First Quarter

Hourly Weather History & Observations

Time (MST) Temp. Windchill Dew Point Humidity Pressure Visibility Wind Dir Wind Speed Gust Speed Precip Events Conditions
12:15 AM 23.0 °F 10.1 °F 15.8 °F 74% 29.93 in 10.0 mi NW 15.0 mph - N/A   Overcast
12:35 AM 23.0 °F 9.6 °F 15.8 °F 74% 29.94 in 10.0 mi NW 16.1 mph 19.6 mph N/A   Overcast
1:15 AM 23.0 °F 10.1 °F 15.8 °F 74% 29.94 in 10.0 mi NW 15.0 mph - N/A   Overcast
1:35 AM 23.0 °F 10.1 °F 14.0 °F 68% 29.94 in 10.0 mi NW 15.0 mph - N/A   Overcast
1:55 AM 21.2 °F 8.9 °F 14.0 °F 74% 29.95 in 10.0 mi NW 12.7 mph 23.0 mph N/A   Overcast
2:35 AM 21.2 °F 8.9 °F 12.2 °F 68% 29.94 in 10.0 mi NW 12.7 mph 20.7 mph N/A   Overcast
2:55 AM 21.2 °F 9.5 °F 12.2 °F 68% 29.94 in 10.0 mi NW 11.5 mph - N/A   Overcast
3:15 AM 21.2 °F 9.5 °F 12.2 °F 68% 29.95 in 10.0 mi NW 11.5 mph - N/A   Overcast
3:35 AM 19.4 °F 6.0 °F 12.2 °F 74% 29.95 in 10.0 mi NW 13.8 mph 19.6 mph N/A   Mostly Cloudy
3:55 AM 19.4 °F 6.6 °F 12.2 °F 74% 29.95 in 10.0 mi NW 12.7 mph - N/A   Clear
4:15 AM 19.4 °F 6.0 °F 12.2 °F 74% 29.97 in 10.0 mi NW 13.8 mph - N/A   Scattered Clouds
4:35 AM 19.4 °F 6.0 °F 12.2 °F 74% 29.97 in 10.0 mi NW 13.8 mph 20.7 mph N/A   Overcast
4:55 AM 19.4 °F 7.9 °F 12.2 °F 74% 29.98 in 10.0 mi NNW 10.4 mph - N/A   Overcast
5:35 AM 19.4 °F 6.0 °F 12.2 °F 74% 29.98 in 10.0 mi NW 13.8 mph - N/A   Overcast
5:55 AM 19.4 °F 8.6 °F 12.2 °F 74% 29.98 in 10.0 mi NNW 9.2 mph - N/A   Overcast
6:15 AM 19.4 °F 9.5 °F 12.2 °F 74% 29.98 in 10.0 mi NNW 8.1 mph - N/A   Overcast
6:35 AM 19.4 °F 7.9 °F 12.2 °F 74% 29.99 in 10.0 mi NW 10.4 mph - N/A   Overcast
6:55 AM 19.4 °F 10.4 °F 12.2 °F 74% 29.99 in 10.0 mi NW 6.9 mph - N/A   Overcast
7:15 AM 19.4 °F 10.4 °F 12.2 °F 74% 30.00 in 10.0 mi WNW 6.9 mph - N/A   Overcast
7:35 AM 19.4 °F 8.6 °F 12.2 °F 74% 30.00 in 10.0 mi WNW 9.2 mph - N/A   Overcast
7:55 AM 19.4 °F 9.5 °F 12.2 °F 74% 30.01 in 10.0 mi NW 8.1 mph - N/A   Overcast
8:15 AM 19.4 °F 11.5 °F 12.2 °F 74% 30.01 in 10.0 mi WNW 5.8 mph - N/A   Overcast
8:35 AM 19.4 °F - 12.2 °F 74% 30.02 in 10.0 mi Calm Calm - N/A   Overcast
8:55 AM 21.2 °F 11.7 °F 14.0 °F 74% 30.01 in 10.0 mi WNW 8.1 mph - N/A   Overcast
9:15 AM 21.2 °F 14.9 °F 14.0 °F 74% 30.01 in 10.0 mi West 4.6 mph - N/A   Overcast
9:35 AM 23.0 °F 17.0 °F 14.0 °F 68% 30.01 in 10.0 mi WSW 4.6 mph - N/A   Overcast
9:55 AM 24.8 °F 20.5 °F 14.0 °F 64% 30.01 in 10.0 mi WNW 3.5 mph - N/A   Mostly Cloudy
10:15 AM 24.8 °F 17.9 °F 15.8 °F 69% 30.01 in 10.0 mi South 5.8 mph - N/A   Scattered Clouds
10:35 AM 26.6 °F 18.2 °F 14.0 °F 59% 30.00 in 10.0 mi SW 8.1 mph - N/A   Scattered Clouds
10:55 AM 26.6 °F 20.0 °F 14.0 °F 59% 30.00 in 10.0 mi SW 5.8 mph - N/A   Partly Cloudy
11:15 AM 28.4 °F 20.4 °F 14.0 °F 55% 30.00 in 10.0 mi SW 8.1 mph - N/A   Clear
11:35 AM 30.2 °F 24.3 °F 15.8 °F 55% 29.99 in 10.0 mi SW 5.8 mph - N/A   Clear
11:55 AM 30.2 °F 21.3 °F 14.0 °F 51% 29.99 in 10.0 mi SSW 10.4 mph - N/A   Clear
12:15 PM 32.0 °F 24.2 °F 14.0 °F 48% 29.98 in 10.0 mi SW 9.2 mph - N/A   Clear
12:35 PM 33.8 °F 25.8 °F 14.0 °F 44% 29.97 in 10.0 mi SSW 10.4 mph - N/A   Clear
12:55 PM 33.8 °F 24.8 °F 12.2 °F 41% 29.96 in 10.0 mi SW 12.7 mph 17.3 mph N/A   Clear
1:15 PM 33.8 °F 23.9 °F 12.2 °F 41% 29.95 in 10.0 mi SW 15.0 mph 18.4 mph N/A   Scattered Clouds
1:35 PM 35.6 °F 25.5 °F 14.0 °F 41% 29.95 in 10.0 mi WSW 17.3 mph - N/A   Overcast
1:55 PM 35.6 °F 26.6 °F 14.0 °F 41% 29.95 in 10.0 mi West 13.8 mph - N/A   Overcast
2:15 PM 35.6 °F 26.6 °F 15.8 °F 44% 29.95 in 10.0 mi WSW 13.8 mph 20.7 mph N/A   Overcast
2:36 PM 35.6 °F 26.2 °F 15.8 °F 44% 29.95 in 10.0 mi West 15.0 mph 20.7 mph N/A   Overcast
2:55 PM 35.6 °F 25.5 °F 15.8 °F 44% 29.94 in 10.0 mi WNW 17.3 mph 21.9 mph N/A   Overcast
3:15 PM 35.6 °F 26.6 °F 17.6 °F 48% 29.94 in 10.0 mi West 13.8 mph 24.2 mph N/A   Overcast
3:35 PM 35.6 °F 24.5 °F 17.6 °F 48% 29.95 in 10.0 mi West 20.7 mph 26.5 mph N/A   Overcast
3:55 PM 35.6 °F 24.2 °F 15.8 °F 44% 29.95 in 10.0 mi NW 21.9 mph 27.6 mph N/A   Overcast
4:15 PM 35.6 °F 25.9 °F 19.4 °F 52% 29.96 in 10.0 mi NW 16.1 mph 21.9 mph N/A   Overcast
4:35 PM 33.8 °F 23.5 °F 17.6 °F 52% 29.97 in 10.0 mi NW 16.1 mph - N/A   Mostly Cloudy
4:55 PM 35.6 °F 25.2 °F 15.8 °F 44% 29.98 in 10.0 mi NW 18.4 mph - N/A   Mostly Cloudy
5:15 PM 33.8 °F 23.2 °F 15.8 °F 48% 29.99 in 10.0 mi NW 17.3 mph 24.2 mph N/A   Overcast
5:35 PM 33.8 °F 22.8 °F 15.8 °F 48% 30.01 in 10.0 mi NW 18.4 mph 23.0 mph N/A   Mostly Cloudy
5:55 PM 33.8 °F 24.8 °F 12.2 °F 41% 30.02 in 10.0 mi NW 12.7 mph 19.6 mph N/A   Mostly Cloudy
6:15 PM 32.0 °F 23.0 °F 14.0 °F 48% 30.04 in 10.0 mi NNW 11.5 mph - N/A   Overcast
6:35 PM 32.0 °F 22.5 °F 14.0 °F 48% 30.04 in 10.0 mi NNW 12.7 mph - N/A   Overcast
6:55 PM 32.0 °F 24.8 °F 14.0 °F 48% 30.05 in 10.0 mi NW 8.1 mph - N/A   Overcast
7:15 PM 30.2 °F 23.4 °F 15.8 °F 55% 30.06 in 10.0 mi NW 6.9 mph - N/A   Overcast
7:35 PM 30.2 °F 25.4 °F 14.0 °F 51% 30.06 in 10.0 mi WNW 4.6 mph - N/A   Overcast
7:55 PM 28.4 °F 23.3 °F 15.8 °F 59% 30.07 in 10.0 mi West 4.6 mph - N/A   Overcast
8:15 PM 30.2 °F 25.4 °F 17.6 °F 60% 30.08 in 10.0 mi West 4.6 mph - N/A   Overcast
8:35 PM 30.2 °F 24.3 °F 17.6 °F 60% 30.09 in 10.0 mi WSW 5.8 mph - N/A   Overcast
8:55 PM 30.2 °F 22.6 °F 17.6 °F 60% 30.10 in 10.0 mi WSW 8.1 mph - N/A   Overcast
9:15 PM 30.2 °F 22.6 °F 17.6 °F 60% 30.10 in 10.0 mi West 8.1 mph - N/A   Overcast
9:35 PM 28.4 °F 21.2 °F 15.8 °F 59% 30.11 in 10.0 mi West 6.9 mph - N/A   Mostly Cloudy
10:35 PM 28.4 °F 21.2 °F 17.6 °F 64% 30.14 in 10.0 mi NW 6.9 mph - N/A   Partly Cloudy
10:55 PM 28.4 °F 21.2 °F 17.6 °F 64% 30.15 in 10.0 mi NW 6.9 mph - N/A   Clear
11:15 PM 26.6 °F 19.1 °F 17.6 °F 69% 30.16 in 10.0 mi NW 6.9 mph - N/A   Clear
11:35 PM 24.8 °F 16.9 °F 15.8 °F 69% 30.16 in 10.0 mi WNW 6.9 mph - N/A   Clear
11:55 PM 23.0 °F 15.8 °F 15.8 °F 74% 30.16 in 10.0 mi WNW 5.8 mph - N/A   Clear